Location: Jastrz?bniki
(50.3667°N, 20.3833°E)
Time: 11:08:30
(UTC+00:00)

Cosmos 2237 Rocket - Pass Details

Date: 05 August 2024
Orbit: 836 x 847 km, 71.0° (Epoch: 09 September)

Event Time Altitude Azimuth Distance (km) Brightness Sun altitude
Exits shadow 02:03:21 - 181° (S) 3,364 4.9 -9.9°
Reaches altitude 10° 02:05:53 10° 174° (S) 2,454 4.3 -9.6°
Maximum altitude 02:11:01 38° 108° (ESE) 1,263 3.5 -8.9°
Drops below altitude 10° 02:16:11 10° 42° (NE) 2,463 6.3 -8.3°
Sets 02:18:46 0° 35° (NE) 3,400 7.1 -8.0°
